Al Hamla — V7MX9 — position and weather

sailwx.info

Track history (hours):
 
Tides and Currents Weather Stations Pressure Air Temp Water Temp Dewpoint Dewpoint Depression Visibility Wind Speed Wind Dir Waves Ship Positions

Al Hamla

Last reported at 2014-Oct-21 06:33 UTC. Time now 2014-Oct-21 21:30 UTC.
Position N 35°00' E 139°33'.

Length 340 m; draft 9.7 m.

Type: Other ship. MMSI: 538002922.

Date/timePositionNaut miles runAvg speedWind from/ knotsBaromVisibWave heightAir tempDewpointWater temp
2014-Oct-21 06:33N 35°00' E 139°33'1514.9
2014-Oct-21 05:33N 35°11' E 139°46'1110.8
2014-Oct-21 04:34N 35°21' E 139°42'7 6.9
2014-Oct-21 03:34N 35°28' E 139°44'0 0.0
2014-Oct-21 02:31N 35°28' E 139°44'0 0.0
2014-Oct-21 01:31N 35°28' E 139°44'0 0.0
2014-Oct-21 00:32N 35°28' E 139°44'0 0.0
2014-Oct-20 23:32N 35°28' E 139°44'0 0.0
2014-Oct-20 22:30N 35°28' E 139°44'0 0.0
2014-Oct-20 21:31N 35°28' E 139°44'0 0.0
2014-Oct-20 20:31N 35°28' E 139°44'0 0.0
2014-Oct-20 19:32N 35°28' E 139°44'0 0.0
2014-Oct-20 18:33N 35°28' E 139°44'0 0.0
2014-Oct-20 17:33N 35°28' E 139°44'0 0.0
2014-Oct-20 16:31N 35°28' E 139°44'0 0.0
2014-Oct-20 15:32N 35°28' E 139°44'0 0.0
2014-Oct-20 14:32N 35°28' E 139°44'0 0.0
2014-Oct-20 13:33N 35°28' E 139°44'0 0.0
2014-Oct-20 12:33N 35°28' E 139°44'0 0.0
2014-Oct-20 11:31N 35°28' E 139°44'0 0.0
2014-Oct-20 10:32N 35°28' E 139°44'0 0.0
2014-Oct-20 09:32N 35°28' E 139°44'0 0.0
2014-Oct-20 08:33N 35°28' E 139°44'0 0.0
2014-Oct-20 07:34N 35°28' E 139°44'0 0.0
2014-Oct-20 06:28N 35°28' E 139°44'0 0.0
2014-Oct-20 05:32N 35°28' E 139°44'0 0.0
2014-Oct-20 04:32N 35°28' E 139°44'0 0.0
2014-Oct-20 03:33N 35°28' E 139°44'0 0.0
2014-Oct-20 02:31N 35°28' E 139°44'0 0.0
2014-Oct-20 01:33N 35°28' E 139°44'1 1.2
2014-Oct-20 00:33N 35°27' E 139°45'8 7.9
2014-Oct-19 23:33N 35°19' E 139°44'10 9.7
2014-Oct-19 22:32N 35°09' E 139°46'7 6.4
2014-Oct-19 21:30N 35°03' E 139°43'  
2014-Oct-12 18:29N 01°18' E 104°21'1615.4
2014-Oct-12 17:28N 01°15' E 104°06'910.5
2014-Oct-12 16:33N 01°13' E 103°57'1010.5
2014-Oct-12 15:33N 01°09' E 103°47'1110.7
2014-Oct-12 14:32N 01°04' E 103°37'  
Track history (hours):
 
Tides and Currents Weather Stations Pressure Air Temp Water Temp Dewpoint Dewpoint Depression Visibility Wind Speed Wind Dir Waves Ship Positions

Al Hamla

Last reported at 2014-Oct-21 06:33 UTC. Time now 2014-Oct-21 21:30 UTC.
Position N 35°00' E 139°33'.

Length 340 m; draft 9.7 m.

Type: Other ship. MMSI: 538002922.

Date/timePositionNaut miles runAvg speedWind from/ knotsBaromVisibWave heightAir tempDewpointWater temp
2014-Oct-21 06:33N 35°00' E 139°33'1514.9
2014-Oct-21 05:33N 35°11' E 139°46'1110.8
2014-Oct-21 04:34N 35°21' E 139°42'7 6.9
2014-Oct-21 03:34N 35°28' E 139°44'0 0.0
2014-Oct-21 02:31N 35°28' E 139°44'0 0.0
2014-Oct-21 01:31N 35°28' E 139°44'0 0.0
2014-Oct-21 00:32N 35°28' E 139°44'0 0.0
2014-Oct-20 23:32N 35°28' E 139°44'0 0.0
2014-Oct-20 22:30N 35°28' E 139°44'0 0.0
2014-Oct-20 21:31N 35°28' E 139°44'0 0.0
2014-Oct-20 20:31N 35°28' E 139°44'0 0.0
2014-Oct-20 19:32N 35°28' E 139°44'0 0.0
2014-Oct-20 18:33N 35°28' E 139°44'0 0.0
2014-Oct-20 17:33N 35°28' E 139°44'0 0.0
2014-Oct-20 16:31N 35°28' E 139°44'0 0.0
2014-Oct-20 15:32N 35°28' E 139°44'0 0.0
2014-Oct-20 14:32N 35°28' E 139°44'0 0.0
2014-Oct-20 13:33N 35°28' E 139°44'0 0.0
2014-Oct-20 12:33N 35°28' E 139°44'0 0.0
2014-Oct-20 11:31N 35°28' E 139°44'0 0.0
2014-Oct-20 10:32N 35°28' E 139°44'0 0.0
2014-Oct-20 09:32N 35°28' E 139°44'0 0.0
2014-Oct-20 08:33N 35°28' E 139°44'0 0.0
2014-Oct-20 07:34N 35°28' E 139°44'0 0.0
2014-Oct-20 06:28N 35°28' E 139°44'0 0.0
2014-Oct-20 05:32N 35°28' E 139°44'0 0.0
2014-Oct-20 04:32N 35°28' E 139°44'0 0.0
2014-Oct-20 03:33N 35°28' E 139°44'0 0.0
2014-Oct-20 02:31N 35°28' E 139°44'0 0.0
2014-Oct-20 01:33N 35°28' E 139°44'1 1.2
2014-Oct-20 00:33N 35°27' E 139°45'8 7.9
2014-Oct-19 23:33N 35°19' E 139°44'10 9.7
2014-Oct-19 22:32N 35°09' E 139°46'7 6.4
2014-Oct-19 21:30N 35°03' E 139°43'  
2014-Oct-12 18:29N 01°18' E 104°21'1615.4
2014-Oct-12 17:28N 01°15' E 104°06'910.5
2014-Oct-12 16:33N 01°13' E 103°57'1010.5
2014-Oct-12 15:33N 01°09' E 103°47'1110.7
2014-Oct-12 14:32N 01°04' E 103°37'  

Dump ship's entire track history